{"data":{"norad_id":53151,"intl_designator":"2022-083V","name":"STARLINK-4040","alt_names":[],"object_type":"PAYLOAD","status":"ACTIVE","operator":null,"country":"US","launch_date":"2022-07-17","launch_site_code":"AFETR","launch_vehicle":null,"mission":null,"orbit_class":"UNKNOWN","rcs_meters":null,"size_class":null,"mass_kg":null,"dimensions":null,"purposes":["comms"],"wikipedia_slug":null,"has_3d_model":false,"image_url":null,"decayed_at":null,"tle_current":{"epoch":"2026-05-25T02:37:20.787168Z","epoch_age_seconds":75648,"freshness":"FRESH","line1":"1 53151U 22083V   26145.10926837 -.00000665  00000+0 -23722-4 0  9992","line2":"2 53151  53.2132 181.0608 0001359  90.1510 269.9638 15.08839604212890","mean_motion":15.08839604,"eccentricity":0.0001359,"inclination_deg":53.2132,"raan_deg":181.0608,"arg_perigee_deg":90.151,"mean_anomaly_deg":269.9638,"bstar":-2.3722e-5,"rev_number":21289,"period_min":95.437579725671,"perigee_km":538.80445926859,"apogee_km":540.6847394873,"semimajor_km":6917.8815993779,"source":"CELESTRAK","updated_at":"2026-05-25T13:38:17.319330Z"}}}